"Period start","avg(HW err(1)/warn(2) (#))","avg(Visibility (m))","avg(Weather code (#))","avg(Precip intensity (mm/h))","min(HW err(1)/warn(2) (#))","max(HW err(1)/warn(2) (#))","std(HW err(1)/warn(2) (#))","med(HW err(1)/warn(2) (#))","min(Visibility (m))","max(Visibility (m))","std(Visibility (m))","med(Visibility (m))","min(Weather code (#))","max(Weather code (#))","std(Weather code (#))","med(Weather code (#))","min(Precip intensity (mm/h))","max(Precip intensity (mm/h))","std(Precip intensity (mm/h))","med(Precip intensity (mm/h))"
2014-10-29 00:00:00,2,27343,0,0.00,2,2,0,2,10992,47071,11914,28663,0,0,0,0,0.00,0.00,0.00,0.00
2014-10-29 00:10:00,2,17080,0,0.00,2,2,0,2,10427,27950,5251,16790,0,0,0,0,0.00,0.00,0.00,0.00
2014-10-29 00:20:00,2,17192,0,0.00,2,2,0,2,10537,26994,5641,15636,0,0,0,0,0.00,0.00,0.00,0.00
2014-10-29 00:30:00,2,23491,0,0.00,2,2,0,2,17627,33821,5748,20984,0,0,0,0,0.00,0.00,0.00,0.00
2014-10-29 00:40:00,2,16232,0,0.00,2,2,0,2,6940,31475,8849,13746,0,0,0,0,0.00,0.00,0.00,0.00
2014-10-29 00:50:00,2,3572,58,0.21,2,2,0,2,2549,5752,990,3370,0,78,29,71,0.00,0.75,0.26,0.12
2014-10-29 01:00:00,2,13234,67,0.03,2,2,0,2,3092,24568,7525,11567,10,78,19,71,0.00,0.15,0.06,0.00
2014-10-29 01:10:00,2,36006,2,0.00,2,2,0,2,15209,42477,7598,38228,0,10,4,0,0.00,0.00,0.00,0.00
2014-10-29 01:20:00,2,38553,0,0.00,2,2,0,2,19981,46841,7834,40985,0,0,0,0,0.00,0.00,0.00,0.00
2014-10-29 01:30:00,2,43160,0,0.00,2,2,0,2,35900,50000,4558,42051,0,0,0,0,0.00,0.00,0.00,0.00
2014-10-29 01:40:00,2,48277,0,0.00,2,2,0,2,43866,50000,1836,48562,0,0,0,0,0.00,0.00,0.00,0.00
2014-10-29 01:50:00,2,47121,0,0.00,2,2,0,2,41664,50000,3213,48559,0,0,0,0,0.00,0.00,0.00,0.00
2014-10-29 02:00:00,2,43178,0,0.00,2,2,0,2,23057,49838,7242,43944,0,0,0,0,0.00,0.00,0.00,0.00
2014-10-29 02:10:00,2,12039,14,0.01,2,2,0,2,5201,21478,5246,9592,0,71,28,0,0.00,0.10,0.03,0.00
2014-10-29 02:20:00,2,21872,50,0.00,2,2,0,2,7410,40691,12608,18986,0,78,35,78,0.00,0.00,0.00,0.00
2014-10-29 02:30:00,2,12302,43,0.19,2,2,0,2,2302,42101,13833,5271,0,71,35,71,0.00,0.55,0.19,0.17
2014-10-29 02:40:00,2,7141,42,0.00,2,2,0,2,4630,12805,2463,6458,10,77,32,40,0.00,0.00,0.00,0.00
2014-10-29 02:50:00,2,9361,10,0.00,2,2,0,2,7209,10727,1065,9512,10,10,0,10,0.00,0.00,0.00,0.00
2014-10-29 03:00:00,2,7392,10,0.00,2,2,0,2,4462,9806,1885,7950,10,10,0,10,0.00,0.00,0.00,0.00
2014-10-29 03:10:00,2,9858,10,0.00,2,2,0,2,4188,19070,3896,8750,10,10,0,10,0.00,0.00,0.00,0.00
2014-10-29 03:20:00,2,11409,4,0.00,2,2,0,2,5896,15376,2941,12284,0,10,5,0,0.00,0.00,0.00,0.00
2014-10-29 03:30:00,2,15969,0,0.00,2,2,0,2,10018,21460,3500,16976,0,0,0,0,0.00,0.00,0.00,0.00
2014-10-29 03:40:00,2,18695,0,0.00,2,2,0,2,7438,31656,7986,20125,0,0,0,0,0.00,0.00,0.00,0.00
2014-10-29 03:50:00,2,10208,0,0.00,2,2,0,2,5736,14704,2840,10296,0,0,0,0,0.00,0.00,0.00,0.00
2014-10-29 04:00:00,2,7499,8,0.00,2,2,0,2,4140,10242,1903,7924,0,10,4,10,0.00,0.00,0.00,0.00
2014-10-29 04:10:00,2,8286,10,0.00,2,2,0,2,6445,9722,985,8434,10,10,0,10,0.00,0.00,0.00,0.00
2014-10-29 04:20:00,2,10284,10,0.00,2,2,0,2,8050,13613,1689,10509,10,10,0,10,0.00,0.00,0.00,0.00
2014-10-29 04:30:00,2,19734,5,0.00,2,2,0,2,13559,24309,3779,19318,0,10,5,5,0.00,0.00,0.00,0.00
2014-10-29 04:40:00,2,10408,0,0.00,2,2,0,2,6730,24051,4758,9340,0,0,0,0,0.00,0.00,0.00,0.00
2014-10-29 04:50:00,2,6322,10,0.00,2,2,0,2,4780,8975,1314,5749,10,10,0,10,0.00,0.00,0.00,0.00
2014-10-29 05:00:00,2,11772,10,0.00,2,2,0,2,9158,17367,2231,11107,10,10,0,10,0.00,0.00,0.00,0.00
2014-10-29 05:10:00,2,17445,2,0.00,2,2,0,2,8947,22002,4306,18863,0,10,4,0,0.00,0.00,0.00,0.00
2014-10-29 05:20:00,2,12607,0,0.00,2,2,0,2,9327,18451,2396,12256,0,0,0,0,0.00,0.00,0.00,0.00
2014-10-29 05:30:00,2,9491,5,0.00,2,2,0,2,6450,15769,2874,8520,0,10,5,5,0.00,0.00,0.00,0.00
2014-10-29 05:40:00,2,11762,7,0.00,2,2,0,2,8585,14383,1636,12205,0,10,5,10,0.00,0.00,0.00,0.00
2014-10-29 05:50:00,2,14639,0,0.00,2,2,0,2,11456,23352,3465,13673,0,0,0,0,0.00,0.00,0.00,0.00
2014-10-29 06:00:00,2,16854,0,0.00,2,2,0,2,7250,24694,5431,18948,0,0,0,0,0.00,0.00,0.00,0.00
2014-10-29 06:10:00,2,8303,5,0.00,2,2,0,2,5739,12397,2114,7713,0,10,5,5,0.00,0.00,0.00,0.00
2014-10-29 06:20:00,2,22430,8,0.00,2,2,0,2,12979,29451,5010,23906,0,10,4,10,0.00,0.00,0.00,0.00
2014-10-29 06:30:00,2,24628,0,0.00,2,2,0,2,20979,28515,2372,24536,0,0,0,0,0.00,0.00,0.00,0.00
2014-10-29 06:40:00,2,23922,0,0.00,2,2,0,2,14291,29390,5013,25664,0,0,0,0,0.00,0.00,0.00,0.00
2014-10-29 06:50:00,2,26810,0,0.00,2,2,0,2,16391,35027,7061,28682,0,0,0,0,0.00,0.00,0.00,0.00
2014-10-29 07:00:00,2,34484,0,0.00,2,2,0,2,25281,41790,4632,34380,0,0,0,0,0.00,0.00,0.00,0.00
2014-10-29 07:10:00,2,10833,0,0.00,2,2,0,2,6879,16138,2975,10232,0,0,0,0,0.00,0.00,0.00,0.00
2014-10-29 07:20:00,2,12404,0,0.00,2,2,0,2,8283,16729,2699,12350,0,0,0,0,0.00,0.00,0.00,0.00
2014-10-29 07:30:00,2,16264,0,0.00,2,2,0,2,11118,19842,2575,16242,0,0,0,0,0.00,0.00,0.00,0.00
2014-10-29 07:40:00,2,16416,0,0.00,2,2,0,2,11986,19081,2391,16958,0,0,0,0,0.00,0.00,0.00,0.00
2014-10-29 07:50:00,2,15908,0,0.00,2,2,0,2,11179,21100,3830,15404,0,0,0,0,0.00,0.00,0.00,0.00
2014-10-29 08:00:00,2,14065,0,0.00,2,2,0,2,10221,17636,2276,14115,0,0,0,0,0.00,0.00,0.00,0.00
2014-10-29 08:10:00,2,19161,0,0.00,2,2,0,2,11886,25775,3627,19590,0,0,0,0,0.00,0.00,0.00,0.00
2014-10-29 08:20:00,2,12790,0,0.00,2,2,0,2,9574,18482,2561,11998,0,0,0,0,0.00,0.00,0.00,0.00
2014-10-29 08:30:00,2,11451,0,0.00,2,2,0,2,6183,15278,2950,11650,0,0,0,0,0.00,0.00,0.00,0.00
2014-10-29 08:40:00,2,10117,0,0.00,2,2,0,2,5831,17925,3549,9326,0,0,0,0,0.00,0.00,0.00,0.00
2014-10-29 08:50:00,2,8618,3,0.00,2,2,0,2,3215,17046,3966,8398,0,10,5,0,0.00,0.00,0.00,0.00
2014-10-29 09:00:00,2,11339,10,0.00,2,2,0,2,7117,14687,2576,10206,10,10,0,10,0.00,0.00,0.00,0.00
2014-10-29 09:10:00,2,9595,2,0.00,2,2,0,2,6471,13828,2481,8662,0,10,4,0,0.00,0.00,0.00,0.00
2014-10-29 09:20:00,2,6474,10,0.00,2,2,0,2,3380,12806,3197,5304,10,10,0,10,0.00,0.00,0.00,0.00
2014-10-29 09:30:00,2,16460,8,0.00,2,2,0,2,9313,27890,5116,15163,0,10,4,10,0.00,0.00,0.00,0.00
2014-10-29 09:40:00,2,14291,0,0.00,2,2,0,2,7217,21674,4361,13864,0,0,0,0,0.00,0.00,0.00,0.00
2014-10-29 09:50:00,2,14880,0,0.00,2,2,0,2,7248,23912,4821,14511,0,0,0,0,0.00,0.00,0.00,0.00
2014-10-29 10:00:00,2,24901,0,0.00,2,2,0,2,12647,31442,5760,25985,0,0,0,0,0.00,0.00,0.00,0.00
2014-10-29 10:10:00,2,22522,0,0.00,2,2,0,2,13977,30966,6348,22593,0,0,0,0,0.00,0.00,0.00,0.00
2014-10-29 10:20:00,2,15803,0,0.00,2,2,0,2,9336,23042,4437,14765,0,0,0,0,0.00,0.00,0.00,0.00
2014-10-29 10:30:00,2,18195,0,0.00,2,2,0,2,9659,28852,5296,18775,0,0,0,0,0.00,0.00,0.00,0.00
2014-10-29 10:40:00,2,14193,0,0.00,2,2,0,2,8534,18426,2832,15100,0,0,0,0,0.00,0.00,0.00,0.00
2014-10-29 10:50:00,2,18607,0,0.00,2,2,0,2,9943,24295,4441,19785,0,0,0,0,0.00,0.00,0.00,0.00
2014-10-29 11:00:00,2,26553,0,0.00,2,2,0,2,21365,30689,2802,27052,0,0,0,0,0.00,0.00,0.00,0.00
2014-10-29 11:10:00,2,20449,0,0.00,2,2,0,2,16498,24939,2946,19822,0,0,0,0,0.00,0.00,0.00,0.00
2014-10-29 11:20:00,2,8569,2,0.00,2,2,0,2,5857,11947,2003,8944,0,10,4,0,0.00,0.00,0.00,0.00
2014-10-29 11:30:00,2,7126,10,0.00,2,2,0,2,5810,9178,837,7000,10,10,0,10,0.00,0.00,0.00,0.00
2014-10-29 11:40:00,2,7851,10,0.00,2,2,0,2,6030,10323,1582,7329,10,10,0,10,0.00,0.00,0.00,0.00
2014-10-29 11:50:00,2,9251,10,0.00,2,2,0,2,6990,13282,1588,9144,10,10,0,10,0.00,0.00,0.00,0.00
2014-10-29 12:00:00,2,8938,10,0.00,2,2,0,2,6217,10303,1223,9073,10,10,0,10,0.00,0.00,0.00,0.00
2014-10-29 12:10:00,2,10501,10,0.00,2,2,0,2,6011,14225,2683,11004,10,10,0,10,0.00,0.00,0.00,0.00
2014-10-29 12:20:00,2,9210,10,0.00,2,2,0,2,5131,14139,3108,8453,10,10,0,10,0.00,0.00,0.00,0.00
2014-10-29 12:30:00,2,9003,10,0.00,2,2,0,2,6960,11759,1505,8490,10,10,0,10,0.00,0.00,0.00,0.00
2014-10-29 12:40:00,2,7003,10,0.00,2,2,0,2,4911,9740,1481,6851,10,10,0,10,0.00,0.00,0.00,0.00
2014-10-29 12:50:00,2,3512,10,0.00,2,2,0,2,2908,4593,518,3460,10,10,0,10,0.00,0.00,0.00,0.00
2014-10-29 13:00:00,2,4769,10,0.00,2,2,0,2,3200,7863,1317,4512,10,10,0,10,0.00,0.00,0.00,0.00
2014-10-29 13:10:00,2,5429,10,0.00,2,2,0,2,4656,6535,544,5418,10,10,0,10,0.00,0.00,0.00,0.00
2014-10-29 13:20:00,2,6430,10,0.00,2,2,0,2,4356,10163,1672,5966,10,10,0,10,0.00,0.00,0.00,0.00
2014-10-29 13:30:00,2,4557,10,0.00,2,2,0,2,3268,5199,542,4627,10,10,0,10,0.00,0.00,0.00,0.00
2014-10-29 13:40:00,2,3912,10,0.00,2,2,0,2,3114,4908,461,3902,10,10,0,10,0.00,0.00,0.00,0.00
2014-10-29 13:50:00,2,3723,10,0.00,2,2,0,2,3121,4591,472,3686,10,10,0,10,0.00,0.00,0.00,0.00
2014-10-29 14:00:00,2,2979,10,0.00,2,2,0,2,2475,3503,341,3002,10,10,0,10,0.00,0.00,0.00,0.00
2014-10-29 14:10:00,2,2822,10,0.00,2,2,0,2,2347,3345,285,2808,10,10,0,10,0.00,0.00,0.00,0.00
2014-10-29 14:20:00,2,2333,10,0.00,2,2,0,2,1879,2909,298,2321,10,10,0,10,0.00,0.00,0.00,0.00
2014-10-29 14:30:00,2,2591,10,0.00,2,2,0,2,1805,3478,425,2531,10,10,0,10,0.00,0.00,0.00,0.00
2014-10-29 14:40:00,2,2452,10,0.00,2,2,0,2,2068,3140,305,2401,10,10,0,10,0.00,0.00,0.00,0.00
2014-10-29 14:50:00,2,3596,10,0.00,2,2,0,2,2654,5533,885,3370,10,10,0,10,0.00,0.00,0.00,0.00
2014-10-29 15:00:00,2,4115,10,0.00,2,2,0,2,3436,4889,518,4044,10,10,0,10,0.00,0.00,0.00,0.00
2014-10-29 15:10:00,2,5008,10,0.00,2,2,0,2,3104,7081,1197,4814,10,10,0,10,0.00,0.00,0.00,0.00
2014-10-29 15:20:00,2,6146,10,0.00,2,2,0,2,5064,7709,904,5790,10,10,0,10,0.00,0.00,0.00,0.00
2014-10-29 15:30:00,2,6509,10,0.00,2,2,0,2,4651,8999,1184,6459,10,10,0,10,0.00,0.00,0.00,0.00
2014-10-29 15:40:00,2,6239,10,0.00,2,2,0,2,5215,7273,666,6160,10,10,0,10,0.00,0.00,0.00,0.00
2014-10-29 15:50:00,2,4361,10,0.00,2,2,0,2,3525,5176,563,4264,10,10,0,10,0.00,0.00,0.00,0.00
2014-10-29 16:00:00,2,3902,10,0.00,2,2,0,2,3386,4775,450,3760,10,10,0,10,0.00,0.00,0.00,0.00
2014-10-29 16:10:00,2,3363,10,0.00,2,2,0,2,2862,4059,431,3250,10,10,0,10,0.00,0.00,0.00,0.00
2014-10-29 16:20:00,2,2820,10,0.00,2,2,0,2,2267,3322,306,2821,10,10,0,10,0.00,0.00,0.00,0.00
2014-10-29 16:30:00,2,2976,10,0.00,2,2,0,2,2370,3610,314,3000,10,10,0,10,0.00,0.00,0.00,0.00
2014-10-29 16:40:00,2,2652,10,0.00,2,2,0,2,2215,3244,263,2648,10,10,0,10,0.00,0.00,0.00,0.00
2014-10-29 16:50:00,2,2312,10,0.00,2,2,0,2,1759,2807,312,2302,10,10,0,10,0.00,0.00,0.00,0.00
2014-10-29 17:00:00,2,3779,10,0.00,2,2,0,2,1763,6674,1471,3698,10,10,0,10,0.00,0.00,0.00,0.00
2014-10-29 17:10:00,2,2487,10,0.00,2,2,0,2,1298,3770,678,2448,10,10,0,10,0.00,0.00,0.00,0.00
2014-10-29 17:20:00,2,1735,10,0.00,2,2,0,2,1050,2458,434,1630,10,10,0,10,0.00,0.00,0.00,0.00
2014-10-29 17:30:00,2,2373,77,0.01,2,2,0,2,1612,3169,555,2294,71,78,3,78,0.00,0.05,0.02,0.00
2014-10-29 17:40:00,2,3048,78,0.00,2,2,0,2,1542,4558,1014,2632,78,78,0,78,0.00,0.00,0.00,0.00
2014-10-29 17:50:00,2,2397,78,0.00,2,2,0,2,1398,3102,536,2574,78,78,0,78,0.00,0.00,0.00,0.00
2014-10-29 18:00:00,2,2376,78,0.02,2,2,0,2,1569,3352,517,2432,78,78,0,78,0.00,0.05,0.02,0.00
2014-10-29 18:10:00,2,3380,78,0.00,2,2,0,2,1733,6578,1331,3018,78,78,0,78,0.00,0.00,0.00,0.00
2014-10-29 18:20:00,2,5288,78,0.00,2,2,0,2,2724,7061,1446,5620,78,78,0,78,0.00,0.00,0.00,0.00
2014-10-29 18:30:00,2,6383,78,0.00,2,2,0,2,4018,7960,1342,6980,78,78,0,78,0.00,0.00,0.00,0.00
2014-10-29 18:40:00,2,7755,78,0.00,2,2,0,2,6110,8692,715,7976,78,78,0,78,0.00,0.00,0.00,0.00
2014-10-29 18:50:00,2,8053,78,0.01,2,2,0,2,4888,9126,1231,8442,78,78,0,78,0.00,0.05,0.02,0.00
2014-10-29 19:00:00,2,10191,78,0.00,2,2,0,2,8825,11741,1017,10034,78,78,0,78,0.00,0.00,0.00,0.00
2014-10-29 19:10:00,2,11919,78,0.00,2,2,0,2,10317,15555,1361,11855,78,78,0,78,0.00,0.00,0.00,0.00
2014-10-29 19:20:00,2,11730,78,0.00,2,2,0,2,8654,13813,1566,11810,78,78,0,78,0.00,0.00,0.00,0.00
2014-10-29 19:30:00,2,10961,78,0.00,2,2,0,2,9280,13293,1147,10929,78,78,0,78,0.00,0.00,0.00,0.00
2014-10-29 19:40:00,2,11794,8,0.00,2,2,0,2,10313,12923,829,11943,0,78,23,0,0.00,0.00,0.00,0.00
2014-10-29 19:50:00,2,8419,3,0.00,2,2,0,2,4507,11571,2083,8216,0,10,5,0,0.00,0.00,0.00,0.00
2014-10-29 20:00:00,2,4468,10,0.00,2,2,0,2,2044,7121,1323,4470,10,10,0,10,0.00,0.00,0.00,0.00
2014-10-29 20:10:00,2,3673,10,0.00,2,2,0,2,2504,5131,830,3585,10,10,0,10,0.00,0.00,0.00,0.00
2014-10-29 20:20:00,2,5373,10,0.00,2,2,0,2,3175,7438,1571,5544,10,10,0,10,0.00,0.00,0.00,0.00
2014-10-29 20:30:00,2,5920,10,0.00,2,2,0,2,3645,8793,1489,6154,10,10,0,10,0.00,0.00,0.00,0.00
2014-10-29 20:40:00,2,4164,10,0.00,2,2,0,2,2931,5770,955,3866,10,10,0,10,0.00,0.00,0.00,0.00
2014-10-29 20:50:00,2,7984,10,0.00,2,2,0,2,3592,14480,2877,7324,10,10,0,10,0.00,0.00,0.00,0.00
2014-10-29 21:00:00,2,12290,10,0.00,2,2,0,2,5287,16679,3977,12987,10,10,0,10,0.00,0.00,0.00,0.00
2014-10-29 21:10:00,2,11567,2,0.00,2,2,0,2,9188,14089,1782,10868,0,10,4,0,0.00,0.00,0.00,0.00
2014-10-29 21:20:00,2,9393,5,0.00,2,2,0,2,3757,14655,2997,9765,0,10,5,5,0.00,0.00,0.00,0.00
2014-10-29 21:30:00,2,9077,10,0.00,2,2,0,2,5546,10953,1458,9234,10,10,0,10,0.00,0.00,0.00,0.00
2014-10-29 21:40:00,2,7056,76,0.05,2,2,0,2,4835,8555,1201,7219,71,78,3,77,0.00,0.15,0.05,0.05
2014-10-29 21:50:00,2,5755,73,0.15,2,2,0,2,3094,9107,1935,5316,71,77,3,71,0.05,0.30,0.08,0.12
2014-10-29 22:00:00,2,4951,71,0.16,2,2,0,2,3756,6998,1108,4414,71,71,0,71,0.05,0.40,0.09,0.15
2014-10-29 22:10:00,2,4015,73,0.14,2,2,0,2,3172,5404,704,3692,71,77,3,71,0.05,0.30,0.08,0.15
2014-10-29 22:20:00,2,5244,73,0.07,2,2,0,2,3702,6717,992,5006,71,77,3,71,0.05,0.15,0.03,0.05
2014-10-29 22:30:00,2,4493,78,0.03,2,2,0,2,2287,8769,1894,4201,77,78,0,78,0.00,0.05,0.02,0.05
2014-10-29 22:40:00,2,4684,78,0.00,2,2,0,2,3717,6403,877,4448,78,78,0,78,0.00,0.00,0.00,0.00
2014-10-29 22:50:00,2,5887,78,0.00,2,2,0,2,4242,10358,1766,5578,78,78,0,78,0.00,0.00,0.00,0.00
2014-10-29 23:00:00,2,4844,78,0.00,2,2,0,2,2807,7358,1466,4998,78,78,0,78,0.00,0.00,0.00,0.00
2014-10-29 23:10:00,2,7391,78,0.00,2,2,0,2,4855,12026,1954,7090,78,78,0,78,0.00,0.00,0.00,0.00
2014-10-29 23:20:00,2,8475,71,0.00,2,2,0,2,3414,12849,2409,7997,10,78,20,78,0.00,0.00,0.00,0.00
2014-10-29 23:30:00,2,7234,10,0.00,2,2,0,2,4096,11962,2642,6360,10,10,0,10,0.00,0.00,0.00,0.00
2014-10-29 23:40:00,2,11444,9,0.00,2,2,0,2,5105,18376,4207,10763,0,10,3,10,0.00,0.00,0.00,0.00
2014-10-29 23:50:00,2,16015,0,0.00,2,2,0,2,9768,18653,2602,16787,0,0,0,0,0.00,0.00,0.00,0.00
